, TX

(GMT )
Fort Hood

Weather History for KGRK - November, 2013

Change the Weather History Date:

Saturday, November 23, 2013

  Actual Average Record
Temperature  
Mean Temperature 36 °F -  
Max Temperature 39 °F 64 °F 82 °F (2005)
Min Temperature 33 °F 44 °F 33 °F (2003)
Degree Days  
Heating Degree Days 29    
Moisture  
Dew Point 33 °F    
Average Humidity 91    
Maximum Humidity 93    
Minimum Humidity 75    
Precipitation  
Precipitation 0.06 in - - ()
Sea Level Pressure  
Sea Level Pressure 30.44 in    
Wind  
Wind Speed 18 mph (North)    
Max Wind Speed 23 mph    
Max Gust Speed 31 mph    
Visibility 6 miles    
Events Rain    
Averages and records for this station are not official NWS values.
T = Trace of Precipitation, MM = Missing Value Source: NWS Daily Summary

Daily Weather History Graph

Daily Weather History Graph

Search for Another Location

Airport or City:

Trip Planner

Search our weather history database for the weather conditions in past years. The results will help you decide how hot, cold, wet, or windy it might be!

Date:

Astronomy

Nov. 23, 2013 Rise Set
Actual Time 7:05 AM CST 5:30 PM CST
Civil Twilight 6:39 AM CST 5:56 PM CST
Nautical Twilight 6:09 AM CST 6:25 PM CST
Astronomical Twilight 5:40 AM CST 6:54 PM CST
Moon 10:51 PM CST (11/23) 11:30 AM CST (11/23)
Length of Visible Light 11h 16m
Length of Day
10h 24m
Waning Gibbous, 69% of the Moon is Illuminated
Nov 23
Waning Gibbous
Nov 25
Last Quarter
Dec 2
New
Dec 9
First Quarter
Dec 17
Full

Hourly Weather History & Observations

Time (CST) Temp. Windchill Dew Point Humidity Pressure Visibility Wind Dir Wind Speed Gust Speed Precip Events Conditions
12:03 AM 33.8 °F 23.5 °F 32.0 °F 93% 30.39 in 7.0 mi NNW 16.1 mph - N/A   Overcast
12:55 AM 33.8 °F 23.2 °F 32.0 °F 93% 30.43 in 5.0 mi NNW 17.3 mph 25.3 mph N/A   Overcast
1:05 AM 33.8 °F 22.8 °F 32.0 °F 93% 30.39 in 5.0 mi NNW 18.4 mph 23.0 mph N/A Rain Light Rain
1:14 AM 33.8 °F 22.8 °F 32.0 °F 93% 30.38 in 5.0 mi North 18.4 mph 26.5 mph N/A   Overcast
1:55 AM 33.8 °F 23.2 °F 32.0 °F 93% 30.43 in 5.0 mi North 17.3 mph 24.2 mph N/A   Overcast
2:20 AM 33.8 °F 22.5 °F 32.0 °F 93% 30.39 in 6.0 mi North 19.6 mph 23.0 mph N/A Rain Light Rain
2:55 AM 33.8 °F 22.8 °F 32.0 °F 93% 30.43 in 7.0 mi NNW 18.4 mph - N/A Rain Light Rain
3:04 AM 33.8 °F 22.5 °F 32.0 °F 93% 30.39 in 7.0 mi North 19.6 mph 24.2 mph N/A   Overcast
3:40 AM 33.8 °F 22.8 °F 32.0 °F 93% 30.39 in 7.0 mi North 18.4 mph 21.9 mph N/A   Overcast
3:55 AM 33.8 °F 22.5 °F 32.0 °F 93% 30.44 in 7.0 mi North 19.6 mph - N/A   Overcast
4:16 AM 33.8 °F 23.5 °F 32.0 °F 93% 30.39 in 7.0 mi NNW 16.1 mph 23.0 mph N/A   Overcast
4:25 AM 33.8 °F 21.9 °F 32.0 °F 93% 30.39 in 7.0 mi NNW 21.9 mph - N/A Rain Light Rain
4:55 AM 33.8 °F 22.8 °F 32.0 °F 93% 30.45 in 7.0 mi North 18.4 mph 25.3 mph N/A Rain Light Rain
5:01 AM 33.8 °F 23.5 °F 30.2 °F 87% 30.40 in 7.0 mi North 16.1 mph 21.9 mph N/A   Mostly Cloudy
5:10 AM 33.8 °F 22.8 °F 30.2 °F 87% 30.40 in 6.0 mi NNW 18.4 mph 25.3 mph N/A   Overcast
5:53 AM 33.8 °F 22.8 °F 32.0 °F 93% 30.40 in 7.0 mi NNW 18.4 mph 26.5 mph N/A Rain Light Rain
5:55 AM 33.8 °F 22.5 °F 32.0 °F 93% 30.45 in 7.0 mi North 19.6 mph 26.5 mph N/A Rain Light Rain
6:10 AM 33.8 °F 21.9 °F 32.0 °F 93% 30.41 in 5.0 mi North 21.9 mph 29.9 mph N/A Rain Light Rain
6:22 AM 33.8 °F 23.2 °F 32.0 °F 93% 30.42 in 4.0 mi North 17.3 mph - N/A Rain Light Rain
6:55 AM 33.8 °F 21.6 °F 32.0 °F 93% 30.47 in 7.0 mi NNW 23.0 mph - N/A Rain Light Rain
7:32 AM 33.8 °F 21.9 °F 32.0 °F 93% 30.45 in 7.0 mi North 21.9 mph 29.9 mph N/A Rain Light Rain
7:50 AM 33.8 °F 22.5 °F 32.0 °F 93% 30.46 in 7.0 mi North 19.6 mph 27.6 mph N/A Rain Light Rain
7:55 AM 33.8 °F 22.8 °F 32.0 °F 93% 30.50 in 7.0 mi North 18.4 mph 26.5 mph N/A Rain Light Rain
8:03 AM 33.8 °F 23.2 °F 32.0 °F 93% 30.46 in 7.0 mi NNW 17.3 mph - N/A Rain Light Rain
8:13 AM 33.8 °F 22.5 °F 32.0 °F 93% 30.46 in 7.0 mi North 19.6 mph 24.2 mph N/A Rain Light Rain
8:55 AM 35.6 °F 24.8 °F 32.0 °F 87% 30.52 in 7.0 mi North 19.6 mph 26.5 mph N/A Rain Light Rain
9:55 AM 35.6 °F 24.8 °F 32.0 °F 87% 30.53 in 7.0 mi North 19.6 mph 27.6 mph N/A Rain Light Rain
10:55 AM 35.6 °F 25.9 °F 33.8 °F 93% 30.51 in 7.0 mi North 16.1 mph 25.3 mph N/A Rain Light Rain
11:15 AM 35.6 °F 26.6 °F 33.8 °F 93% 30.47 in 6.0 mi North 13.8 mph - N/A Rain Light Rain
11:55 AM 37.4 °F 27.8 °F 33.8 °F 87% 30.50 in 7.0 mi North 17.3 mph - N/A Rain Light Rain
12:48 PM 37.4 °F 28.2 °F 35.6 °F 93% 30.14 in 7.0 mi NNW 16.1 mph - N/A   Overcast
12:55 PM 37.4 °F 28.2 °F 35.6 °F 93% 30.48 in 7.0 mi NNW 16.1 mph - N/A   Overcast
1:55 PM 37.4 °F 27.2 °F 35.6 °F 93% 30.45 in 7.0 mi North 19.6 mph 24.2 mph N/A   Overcast
2:55 PM 37.4 °F 27.2 °F 35.6 °F 93% 30.45 in 5.0 mi North 19.6 mph 23.0 mph N/A   Drizzle
3:26 PM 37.4 °F 28.5 °F 35.6 °F 93% 30.40 in 3.0 mi North 15.0 mph 31.1 mph N/A   Drizzle
3:55 PM 37.4 °F 27.2 °F 35.6 °F 93% 30.46 in 2.5 mi North 19.6 mph - N/A   Drizzle
4:34 PM 37.4 °F 27.5 °F 35.6 °F 93% 30.41 in 3.0 mi North 18.4 mph 24.2 mph N/A   Overcast
4:55 PM 37.4 °F 27.8 °F 35.6 °F 93% 30.46 in 3.0 mi NNE 17.3 mph 24.2 mph N/A   Overcast
5:41 PM 37.4 °F 29.8 °F 35.6 °F 93% 30.41 in 5.0 mi North 11.5 mph - N/A   Overcast
5:55 PM 37.4 °F 29.3 °F 35.6 °F 93% 30.45 in 5.0 mi NNE 12.7 mph 20.7 mph N/A   Drizzle
6:55 PM 39.2 °F 30.2 °F 35.6 °F 87% 30.46 in 7.0 mi NNE 17.3 mph 25.3 mph N/A   Overcast
7:11 PM 39.2 °F 32.0 °F 35.6 °F 87% 30.43 in 7.0 mi NNE 11.5 mph 23.0 mph N/A   Overcast
7:55 PM 39.2 °F 32.0 °F 35.6 °F 87% 30.48 in 7.0 mi NNE 11.5 mph - N/A   Overcast
8:20 PM 39.2 °F 30.5 °F 35.6 °F 87% 30.45 in 7.0 mi NNE 16.1 mph 23.0 mph N/A   Overcast
8:55 PM 39.2 °F 30.5 °F 35.6 °F 87% 30.51 in 7.0 mi NNE 16.1 mph - N/A   Overcast
9:07 PM 39.2 °F 30.5 °F 35.6 °F 87% 30.45 in 7.0 mi NNE 16.1 mph - N/A   Overcast
9:55 PM 39.2 °F 31.6 °F 35.6 °F 87% 30.51 in 7.0 mi North 12.7 mph - N/A   Overcast
10:55 PM 39.2 °F 30.5 °F 33.8 °F 81% 30.50 in 7.0 mi NNE 16.1 mph - N/A   Overcast
11:55 PM 39.2 °F 30.5 °F 32.0 °F 75% 30.49 in 7.0 mi NNE 16.1 mph - N/A   Overcast